Location: Cormont
(50.5693°N, 1.7416°E)
Time: 23:26:54
(UTC+00:00)

CSL-04 Debris - Pass Details

Date: 21 October 2019
Orbit: 827 x 848 km, 99.0° (Epoch: 14 November)

Event Time Altitude Azimuth Distance (km) Brightness Sun altitude
Rises 17:57:03 0° 157° (SSE) 3,383 7.1 -11.4°
Reaches altitude 10° 17:59:23 10° 156° (SSE) 2,456 6.4 -11.7°
Maximum altitude 18:04:50 77° 71° (ENE) 874 4.1 -12.6°
Drops below altitude 10° 18:10:20 10° 347° (NNW) 2,483 6.8 -13.5°
Sets 18:12:43 0° 346° (NNW) 3,425 7.5 -13.9°
